Voltar ao catálogo

STARLINK-3644

AtivoComunicaçõesVLEO
NORAD 51987·PAYLOAD·🇺🇸 United States

Lançado Mar 9, 2022 de Cape Canaveral Space Force Station

Loading…

Próximas Passagens (próximas 24 horas)

TLE

AtualizadoSource: CelesTrak SupGP

Época: Sep 15, 2026, 02:23 UTC

1 51987C 22025AH  26258.09979167 -.00024587  00000+0 -72646-3 0  2585
2 51987  53.1575 252.8837 0001293  91.9915 232.4437 15.34400717    10

Acompanhe STARLINK-3644 em tempo real com AllMySat

Download on the App Store